TIANTONG-1 1

Last updated on Thu Nov 06 2025 00:02:48 GMT+0000 (Coordinated Universal Time)

1 41725U 16048A 25309.76885998 -.00000307 00000+0 00000+0 0 9996 2 41725 3.4314 40.9342 0000561 286.9166 95.6393 1.00271647 34031
UTC large
Height (km)
Speed (km/s)
/
Latitude / Longitude
Inclination (degrees)
Orbital Period (minutes)
Azimuth
Elevation
Range (km)
Doppler Factor

Next 0 passes for location: London (51.5072 / 0.1276)

Sorry there are no passes over London.